Mt. Pocono, PA

4:14 AM EDT on April 30, 2017 (GMT -0400)
Pocono Mountains Municipal

Weather History for KMPO - June, 2014

Change the Weather History Date:

Monday, June 9, 2014

  Actual Average Record
Temperature  
Mean Temperature 62 °F 62 °F  
Max Temperature 65 °F 72 °F 92 °F (1933)
Min Temperature 59 °F 52 °F 30 °F (1905)
Degree Days  
Heating Degree Days 3 5  
Month to date heating degree days 24 49  
Since 1 June heating degree days 24 49  
Since 1 July heating degree days 7476 7065  
Cooling Degree Days 0 2  
Month to date cooling degree days 7 10  
Year to date cooling degree days 14 29  
Since 1 June cooling degree days 7 10  
Growing Degree Days 12 (Base 50)    
Moisture  
Dew Point 58 °F    
Average Humidity 84    
Maximum Humidity 100    
Minimum Humidity 67    
Precipitation  
Precipitation 0.40 in 0.19 in 3.06 in (1928)
Month to date precipitation 0.96 1.60  
Year to date precipitation 19.72 19.10  
Sea Level Pressure  
Sea Level Pressure 29.94 in    
Wind  
Wind Speed 5 mph (SE)    
Max Wind Speed 10 mph    
Max Gust Speed 14 mph    
Visibility 2 miles    
Events Fog , Rain    
T = Trace of Precipitation, MM = Missing Value Source: NWS Daily Summary

Daily Weather History Graph

Daily Weather History Graph

Search for Another Location

Airport or City:

Trip Planner

Search our weather history database for the weather conditions in past years. The results will help you decide how hot, cold, wet, or windy it might be!

Date:

Astronomy

Jun. 09, 2014 Rise Set
Actual Time 5:28 AM EDT 8:33 PM EDT
Civil Twilight 4:55 AM EDT 9:06 PM EDT
Nautical Twilight 4:12 AM EDT 9:49 PM EDT
Astronomical Twilight 3:22 AM EDT 10:39 PM EDT
Moon 4:49 PM EDT (6/9) 2:56 AM EDT (6/9)
Length of Visible Light 16h 11m
Length of Day
15h 04m
Waxing Gibbous, 85% of the Moon is Illuminated
Jun 9
Waxing Gibbous
Jun 13
Full
Jun 19
Last Quarter
Jun 27
New
Jul 5
First Quarter

Hourly Weather History & Observations

Time (EDT) Temp. Dew Point Humidity Pressure Visibility Wind Dir Wind Speed Gust Speed Precip Events Conditions
12:53 AM 64.9 °F 54.0 °F 68% 29.90 in 10.0 mi South 9.2 mph - N/A   Overcast
1:02 AM 64.9 °F 54.0 °F 68% 29.93 in 10.0 mi South 5.8 mph - N/A   Overcast
1:31 AM 64.0 °F 54.0 °F 70% 29.93 in 10.0 mi SSW 6.9 mph - N/A   Overcast
1:53 AM 64.0 °F 54.0 °F 70% 29.90 in 10.0 mi Calm Calm - N/A   Overcast
2:53 AM 61.0 °F 55.0 °F 81% 29.89 in 4.0 mi SE 6.9 mph - 0.05 in Rain Heavy Rain
3:23 AM 61.0 °F 55.9 °F 83% 29.92 in 2.5 mi SE 8.1 mph - 0.09 in Rain Heavy Rain
3:34 AM 60.1 °F 57.0 °F 90% 29.92 in 2.5 mi SE 6.9 mph - 0.17 in Rain Rain
3:41 AM 59.0 °F 57.0 °F 93% 29.92 in 4.0 mi SE 6.9 mph - 0.18 in Rain Light Rain
3:45 AM 59.0 °F 57.0 °F 93% 29.92 in 1.8 mi SE 9.2 mph - 0.25 in Rain Heavy Rain
3:53 AM 59.0 °F 57.0 °F 93% 29.89 in 2.0 mi ESE 8.1 mph - 0.33 in Rain Light Rain
3:58 AM 59.0 °F 57.0 °F 93% 29.92 in 5.0 mi ESE 6.9 mph - 0.00 in Rain Light Rain
4:12 AM 59.0 °F 57.0 °F 93% 29.92 in 2.5 mi ESE 8.1 mph - 0.00 in   Overcast
4:14 AM 59.0 °F 57.0 °F 93% 29.92 in 1.5 mi ESE 6.9 mph - 0.00 in   Overcast
4:17 AM 59.0 °F 57.0 °F 93% 29.92 in 0.8 mi ESE 8.1 mph - 0.00 in   Overcast
4:28 AM 59.0 °F 57.9 °F 96% 29.92 in 0.2 mi SE 6.9 mph - 0.00 in Fog Fog
4:42 AM 59.0 °F 57.0 °F 93% 29.92 in 1.0 mi SE 8.1 mph - 0.00 in   Mist
4:53 AM 59.0 °F 57.0 °F 93% 29.90 in 1.8 mi ESE 5.8 mph - 0.00 in   Overcast
5:06 AM 59.0 °F 57.0 °F 93% 29.92 in 2.5 mi SE 5.8 mph - N/A   Overcast
5:20 AM 59.0 °F 57.0 °F 93% 29.93 in 3.0 mi SE 6.9 mph - N/A   Overcast
5:47 AM 59.0 °F 57.2 °F 94% 29.93 in 1.8 mi SE 5.8 mph - N/A   Overcast
5:53 AM 59.0 °F 57.0 °F 93% 29.91 in 0.8 mi ESE 5.8 mph - N/A   Overcast
6:49 AM 59.0 °F 57.2 °F 94% 29.94 in 0.2 mi SE 5.8 mph - 0.01 in Fog Fog
6:53 AM 59.0 °F 57.9 °F 96% 29.92 in 0.2 mi SE 5.8 mph - 0.01 in Fog Fog
7:21 AM 59.0 °F 57.9 °F 96% 29.94 in 0.5 mi SE 8.1 mph - 0.00 in Fog Fog
7:32 AM 59.0 °F 57.9 °F 96% 29.94 in 0.2 mi ESE 5.8 mph - 0.00 in Fog Fog
7:53 AM 59.0 °F 57.9 °F 96% 29.92 in 0.2 mi ESE 3.5 mph - 0.00 in Fog Fog
8:53 AM 60.1 °F 57.9 °F 93% 29.94 in 0.2 mi SE 5.8 mph - 0.01 in Fog Fog
9:53 AM 60.1 °F 59.0 °F 96% 29.94 in 0.2 mi SE 6.9 mph - N/A Fog Fog
11:53 AM 60.1 °F 59.0 °F 96% 29.95 in 0.2 mi East 4.6 mph - N/A Fog Fog
12:53 PM 61.0 °F 60.1 °F 97% 29.95 in 0.2 mi Variable 3.5 mph - N/A Fog Fog
1:53 PM 62.1 °F 60.1 °F 93% 29.96 in 0.2 mi East 4.6 mph - N/A Fog Fog
4:53 PM 62.1 °F 61.0 °F 96% 29.96 in 0.2 mi ESE 6.9 mph - N/A Fog Fog
5:01 PM 62.1 °F 61.0 °F 96% 29.97 in 0.5 mi SE 5.8 mph - N/A Fog Fog
5:16 PM 62.1 °F 61.0 °F 96% 29.97 in 0.2 mi Variable 3.5 mph - N/A Fog Fog
5:53 PM 62.1 °F 61.0 °F 96% 29.97 in 0.2 mi SE 4.6 mph - N/A Fog Fog
6:53 PM 62.1 °F 61.0 °F 96% 29.98 in 0.2 mi ESE 8.1 mph - N/A Fog Fog
7:53 PM 62.1 °F 61.0 °F 96% 29.97 in 0.2 mi ESE 8.1 mph - N/A Fog Fog
8:53 PM 62.1 °F 61.0 °F 96% 29.97 in 0.2 mi East 3.5 mph - N/A Fog Fog
9:53 PM 62.1 °F 61.0 °F 96% 29.99 in 0.2 mi ESE 3.5 mph - N/A Fog Fog
10:53 PM 62.1 °F 61.0 °F 96% 29.98 in 0.2 mi ESE 4.6 mph - N/A Fog Fog
11:53 PM 62.1 °F 61.0 °F 96% 29.98 in 0.2 mi East 5.8 mph - N/A Fog Fog